Weather History for Lamar, CO

Change the Weather History Date:

Thursday, February 20, 2014

  Actual Average Record
Temperature  
Mean Temperature 33 °F 35 °F  
Max Temperature 45 °F 51 °F 84 °F (1981)
Min Temperature 21 °F 19 °F 0 °F (1918)
Degree Days  
Heating Degree Days 32 30  
Month to date heating degree days 768 649  
Since 1 July heating degree days 4052 4080  
Cooling Degree Days 0 0  
Month to date cooling degree days 0 0  
Year to date cooling degree days 0 0  
Moisture  
Dew Point 20 °F    
Average Humidity 55    
Maximum Humidity 92    
Minimum Humidity 17    
Precipitation  
Precipitation 0.01 in 0.02 in 0.70 in (1990)
Month to date precipitation 0.11 0.27  
Year to date precipitation 0.27 0.57  
Sea Level Pressure  
Sea Level Pressure 29.81 in    
Wind  
Wind Speed 17 mph (NNW)    
Max Wind Speed 46 mph    
Max Gust Speed 56 mph    
Visibility 6 miles    
Events Snow    
T = Trace of Precipitation, MM = Missing Value Source: NWS Daily Summary

Daily Weather History Graph

Daily Weather History Graph

Search for Another Location

Airport:

Trip Planner

Search our weather history database for the weather conditions in past years. The results will help you decide how hot, cold, wet, or windy it might be!

Date:

Astronomy

Feb. 20, 2014 Rise Set
Actual Time 6:34 AM MST 5:34 PM MST
Civil Twilight 6:07 AM MST 6:01 PM MST
Nautical Twilight 5:37 AM MST 6:32 PM MST
Astronomical Twilight 5:06 AM MST 7:02 PM MST
Moon 11:25 PM MST (2/20) 9:24 AM MST (2/20)
Length of Visible Light 11h 53m
Length of Day
11h 00m
Waning Gibbous, 70% of the Moon is Illuminated
Feb 20
Waning Gibbous
Feb 22
Last Quarter
Mar 1
New
Mar 8
First Quarter
Mar 16
Full

Hourly Weather History & Observations

Time (MST) Temp. Windchill Dew Point Humidity Pressure Visibility Wind Dir Wind Speed Gust Speed Precip Events Conditions
12:53 AM 35.1 °F 21.6 °F 30.0 °F 82% 29.52 in 4.0 mi NNW 31.1 mph 52.9 mph 0.00 in Snow Light Snow
1:07 AM 34.0 °F 21.0 °F 30.0 °F 85% 29.60 in 1.8 mi NNW 26.5 mph 41.4 mph 0.00 in Snow Light Snow
1:17 AM 34.0 °F 20.3 °F 30.0 °F 85% 29.62 in 2.0 mi NNW 29.9 mph 42.6 mph 0.00 in Snow Light Snow
1:21 AM 34.0 °F 21.5 °F 30.0 °F 85% 29.63 in 1.8 mi NNW 24.2 mph 42.6 mph 0.00 in Snow Light Snow
1:28 AM 33.1 °F 18.2 °F 30.0 °F 89% 29.64 in 1.0 mi NNW 34.5 mph 44.9 mph 0.00 in Snow Light Snow
1:37 AM 32.0 °F 17.9 °F 30.0 °F 92% 29.65 in 0.8 mi North 28.8 mph 44.9 mph 0.00 in Snow Light Snow
1:50 AM 32.0 °F 17.9 °F 30.2 °F 93% 29.65 in 0.8 mi North 28.8 mph 38.0 mph 0.00 in Snow Light Snow
1:53 AM 32.0 °F 18.1 °F 28.9 °F 88% 29.60 in 0.8 mi North 27.6 mph 38.0 mph 0.01 in Snow Light Snow
2:06 AM 30.9 °F 16.2 °F 28.9 °F 92% 29.66 in 0.8 mi North 29.9 mph 40.3 mph 0.00 in Snow Light Snow
2:13 AM 30.9 °F 15.3 °F 28.9 °F 92% 29.66 in 0.8 mi North 34.5 mph 43.7 mph 0.00 in Snow Light Snow
2:27 AM 30.9 °F 16.4 °F 28.0 °F 89% 29.67 in 0.8 mi North 28.8 mph 42.6 mph 0.00 in Snow Light Snow
2:50 AM 30.2 °F 15.2 °F 28.4 °F 93% 29.67 in 1.0 mi North 29.9 mph 40.3 mph 0.00 in   Mist
2:53 AM 30.0 °F 14.9 °F 28.0 °F 92% 29.63 in 1.0 mi North 29.9 mph 36.8 mph 0.00 in   Mist
2:59 AM 30.0 °F 14.7 °F 27.0 °F 88% 29.68 in 1.5 mi North 31.1 mph 39.1 mph N/A   Overcast
3:10 AM 30.0 °F 15.2 °F 27.0 °F 88% 29.68 in 3.0 mi North 28.8 mph 38.0 mph N/A   Overcast
3:17 AM 30.9 °F 16.9 °F 27.0 °F 85% 29.69 in 6.0 mi NNE 26.5 mph 38.0 mph N/A   Overcast
3:53 AM 30.9 °F 18.1 °F 24.1 °F 76% 29.67 in 10.0 mi North 21.9 mph 29.9 mph N/A   Overcast
4:53 AM 30.0 °F 22.4 °F 24.1 °F 79% 29.75 in 9.0 mi West 8.1 mph - 0.00 in Snow Light Snow
5:53 AM 30.9 °F 20.7 °F 21.0 °F 67% 29.81 in 10.0 mi NW 13.8 mph - 0.00 in   Overcast
6:53 AM 30.0 °F 20.0 °F 18.0 °F 61% 29.85 in 10.0 mi North 12.7 mph - 0.00 in   Mostly Cloudy
7:53 AM 30.0 °F 20.5 °F 18.0 °F 61% 29.91 in 10.0 mi NNW 11.5 mph - 0.00 in   Scattered Clouds
8:53 AM 34.0 °F 24.6 °F 21.9 °F 61% 29.95 in 10.0 mi NW 13.8 mph - 0.00 in   Scattered Clouds
9:53 AM 36.0 °F 25.6 °F 26.1 °F 67% 29.94 in 10.0 mi West 18.4 mph - 0.00 in   Mostly Cloudy
10:53 AM 41.0 °F 30.5 °F 18.0 °F 40% 29.96 in 10.0 mi NW 26.5 mph 35.7 mph N/A   Clear
11:53 AM 43.0 °F 32.7 °F 12.0 °F 28% 29.95 in 10.0 mi NW 28.8 mph 36.8 mph N/A   Partly Cloudy
12:53 PM 42.1 °F 31.5 °F 5.0 °F 22% 29.96 in 10.0 mi NW 28.8 mph 46.0 mph N/A   Mostly Cloudy
1:53 PM 43.0 °F 32.7 °F 7.0 °F 23% 29.97 in 10.0 mi NNW 28.8 mph 40.3 mph N/A   Clear
2:53 PM 43.0 °F 33.8 °F 8.1 °F 24% 29.99 in 10.0 mi NNW 23.0 mph 35.7 mph N/A   Partly Cloudy
3:53 PM 43.0 °F 33.3 °F 1.0 °F 17% 29.99 in 10.0 mi NW 25.3 mph 34.5 mph N/A   Clear
4:53 PM 41.0 °F 31.4 °F -0.0 °F 18% 30.00 in 10.0 mi NW 21.9 mph - N/A   Clear
5:53 PM 35.1 °F 27.9 °F 3.9 °F 27% 30.03 in 10.0 mi NNW 9.2 mph - N/A   Clear
6:53 PM 25.0 °F 15.5 °F 12.9 °F 60% 30.06 in 10.0 mi SW 9.2 mph - N/A   Clear
7:53 PM 28.9 °F 23.9 °F 10.9 °F 47% 30.04 in 10.0 mi SW 4.6 mph - N/A   Clear
8:53 PM 23.0 °F 13.9 °F 14.0 °F 68% 30.04 in 10.0 mi SSW 8.1 mph - N/A   Clear
9:53 PM 24.1 °F 13.1 °F 16.0 °F 71% 30.02 in 10.0 mi SSW 11.5 mph - N/A   Clear
10:53 PM 21.0 °F 14.6 °F 15.1 °F 78% 30.00 in 10.0 mi SW 4.6 mph - N/A   Clear
11:53 PM 23.0 °F - 15.1 °F 72% 29.98 in 10.0 mi Calm Calm - N/A   Clear